{"data":{"norad_id":44048,"intl_designator":"2019-009A","name":"NUSANTARA SATU","alt_names":[],"object_type":"PAYLOAD","status":"ACTIVE","operator":null,"country":"INDO","launch_date":"2019-02-22","launch_site_code":"AFETR","launch_vehicle":null,"mission":null,"orbit_class":"UNKNOWN","rcs_meters":null,"size_class":null,"mass_kg":null,"dimensions":null,"purposes":["comms"],"wikipedia_slug":null,"has_3d_model":false,"image_url":null,"decayed_at":null,"tle_current":{"epoch":"2026-05-25T05:02:38.473728Z","epoch_age_seconds":56968,"freshness":"FRESH","line1":"1 44048U 19009A   26145.21016752  .00000000  00000+0  00000+0 0  9999","line2":"2 44048   0.0121 117.0678 0004101 347.6214 359.7822  1.00269458 26547","mean_motion":1.00269458,"eccentricity":0.0004101,"inclination_deg":0.0121,"raan_deg":117.0678,"arg_perigee_deg":347.6214,"mean_anomaly_deg":359.7822,"bstar":0,"rev_number":2654,"period_min":1436.1302321989,"perigee_km":35769.955292271,"apogee_km":35804.539340487,"semimajor_km":42165.384316379,"source":"CELESTRAK","updated_at":"2026-05-25T13:38:14.061854Z"}}}